默认 日期 大小 文件数 浏览量 最新下载 xml
redline磁力链接相关资源由用户搜索指令自动获取,结果来源于网络,本站不存储任何资料,亦不承担任何责任,请于24小时内删除,搜索到586个磁力,用时1ms。
    ... }, "Video instaLL.wmv": 362327654, "Crashday - Redline Edition.exe": 437127324}
创建时间: 2018-12-30 06:33:00 大小:796.77 MB 文件数量:17 热度:9 最近下载:2025-01-17 11:34:10
    ... ": 550, "MovieObject.bdmv": 6110}, "Rip.REDLINE.SetEngSub.rar": 369}
创建时间: 2018-12-30 20:55:17 大小:7.26 GB 文件数量:205 热度:5 最近下载:2024-10-09 01:47:01
    {"band.jpg": 131541, "logo.png": 67625, "2012 - Vice": {"Cover.jpg": 112031, "03 - Black Sky.mp3": 12881671, "04 - No Limits.mp3": 10159879, "01 - Battle Cry.mp3": 10385161, "06 - Cold Silence.mp3": 11091725, "11 - Heaven's Gate.mp3": 10837731, "09 - Some ...
创建时间: 2018-12-30 21:20:03 大小:211.12 MB 文件数量:25 热度:6 最近下载:2024-12-30 04:09:01
    {"RARBG.txt": 30, "Redline.2007.1080p.BluRay.H264.AAC-RARBG.mp4": 1911182131}
创建时间: 2018-12-31 04:41:11 大小:1.78 GB 文件数量:2 热度:7 最近下载:2025-09-05 11:19:03
    {"sample.avi": 8460288, "Redline.2013 WEBRip XViD juggs.avi": 732198440, "Redline.2013 WEBRip XViD juggs.srt": 87984, "Torrent Downloaded From ExtraTorrent.com.txt": 339}
创建时间: 2018-12-31 11:11:25 大小:706.43 MB 文件数量:4 热度:7 最近下载:2023-04-21 02:50:15
    {"[NoobSubs] Redline (1080p Blu-ray 8bit AAC) Part 1.mp4": 2441835471, "[NoobSubs] Redline (1080p Blu-ray 8bit AAC) Part 2.mp4": 2535402396}
创建时间: 2018-12-31 18:28:25 大小:4.64 GB 文件数量:2 热度:8 最近下载:2025-01-08 19:59:03
    {"Redline.2009.720p.BDRip.x264.AC3-Zoo.mkv": 2517902750, "Redline.2009.720p.BDRip.x264.AC3-Zoo.nfo": 600, "Redline.2009.720p.BDRip.x264.AC3-Zoo.smi": 139327, "Redline.2009.720p.BDRip.x264.AC3-Zoo.sub.rar": 2727591}
创建时间: 2019-01-01 17:46:15 大小:2.35 GB 文件数量:4 热度:6 最近下载:2025-01-01 11:23:02
    {"Sample.avi": 1288192, "blackjesus.nfo": 16550, "Redline.2009.BDRip.XviD.Ac3-Blackjesus.avi": 1470914560}
创建时间: 2019-01-01 21:30:13 大小:1.37 GB 文件数量:3 热度:7 最近下载:2024-11-29 14:15:01
    {"com.crescentmoongames.redline_rush": {"main.6.com.crescentmoongames.redline_rush.obb": 50419434}, "Redline Rush v1.3.0 [Mod Money] apkmania.com.apk": 12562477}
创建时间: 2019-01-02 14:42:32 大小:60.06 MB 文件数量:2 热度:6 最近下载:2023-04-22 20:30:04
    {"[TardS] Redline Pilot.mp4": 74115326, "[TardS] Redline Trailer.mp4": 34782756}
创建时间: 2019-01-03 01:05:26 大小:103.85 MB 文件数量:2 热度:5 最近下载:2025-01-07 03:01:42
    ... ExtraTorrent.com.txt": 1050, "Redline (2007) BRRip 720p x264 ... prisak~~{HKRG}.mkv": 933162768, "Redline (2007) BRRip 720p x264-[ ... "Poster1.jpg": 231179}, "Sample-Redline (2007) BRRip 720p x264-[Dual ... prisak~~{HKRG}.mkv": 7716814, "Redline (2007) BRRip 720p x264 ...
创建时间: 2019-01-05 03:24:24 大小:899.22 MB 文件数量:18 热度:6 最近下载:2025-01-17 10:41:04
    {"01 Redline (Radio Edit).mp3": 7720157}
创建时间: 2019-01-14 13:57:14 大小:7.36 MB 文件数量:1 热度:6 最近下载:2022-11-12 12:35:41
    {"Readme!.inf": 1336, "Crashday Redline Edition-TiNYiSO.exe": 56984228, "Crashday Redline Edition-TiNYiSO.nfo": 676, "Torrent downloaded from AhaShare.com.txt": 52}
创建时间: 2019-01-15 22:14:23 大小:54.35 MB 文件数量:4 热度:9 最近下载:2025-05-25 23:21:01
    ... intercambiosvirtuales.org.url": 126, "REDLINE.2009.720p.BDRip.LATiNO.JAP ... .org.url": 126, "REDLINE.2009.720p.BDRip.LATiNO.JAP ... Spanish.srt": 93413}, "REDLINE.2009.1080p.BDRip.LATiNO. ... intercambiosvirtuales.org.url": 126, "REDLINE.2009.1080p.BDRip.LATiNO.JAP ...
创建时间: 2019-01-16 00:18:02 大小:13.01 GB 文件数量:12 热度:7 最近下载:2025-05-30 23:21:02
    ... Jane.mp3": 1556480, "Klaus Badelt - Redline Theme.mp3": 2773120, "Speedgirl - Speed ... Up Redline.mp3": 3432448, "Bump and grind ... , "Nadia Bjorlin - Needle To The Redline.mp3": 4141056}
创建时间: 2019-01-17 23:01:27 大小:32.44 MB 文件数量:12 热度:4 最近下载:2022-11-12 12:58:19
    {"Setup.dat": 838860800, "Street Legal Racing Redline v2.exe": 12582912, "Street Legal Racing Redline v2.txt": 60}
创建时间: 2019-01-18 01:41:13 大小:812 MB 文件数量:3 热度:4 最近下载:2022-11-15 19:53:52
    {"cover.jpg": 116573, "02 - BPM.mp3": 9420882, "03 - Scream.mp3": 12645443, "05 - Immortal.mp3": 10771945, "01 - Enjoy the Ride.mp3": 9992463, "06 - Nature's Design.mp3": 12766669, "08 - Something Fierce.mp3": 8345708, "10 - Longing for Night.mp3": ...
创建时间: 2019-01-18 05:33:57 大小:131.32 MB 文件数量:12 热度:5 最近下载:2025-01-08 12:39:02
    ... x264.DTS-MySiLU.mkv": 9225658815, "Redline.2007.Blu-ray.1080p.x264 ... DTS-MySiLU.mkv.par2": 53816, "Redline.2007.Blu-ray.1080p.x264 ... .DTS-MySiLU.Sample.mkv": 109030478, "Redline.2007.Blu-ray.1080p.x264 ... mkv.vol03+4.PAR2": 13985568, "Redline.2007.Blu-ray.1080p.x264 ...
创建时间: 2019-01-18 17:25:01 大小:8.74 GB 文件数量:8 热度:42 最近下载:2025-09-20 01:11:02
    {"www.RARBG.com.txt": 45, "Redline.720p.WEB-DL.x264.AC3-RARBG.mkv": 1979983306, "Redline.720p.WEB-DL.x264.AC3-RARBG.nfo": 5055}
创建时间: 2019-01-20 05:35:04 大小:1.84 GB 文件数量:3 热度:4 最近下载:2022-11-12 10:31:54
    {"INFO.txt": 2072, "info.nfo": 4321, "Video instaLL.wmv": 289415272, "Street Legal Racing - Redline.exe": 999832442}
创建时间: 2019-01-20 15:43:10 大小:1.2 GB 文件数量:4 热度:5 最近下载:2025-02-11 14:46:04